{"data":{"norad_id":65119,"epoch":"2026-05-25T04:50:02.759712Z","epoch_age_seconds":53657,"freshness":"FRESH","line1":"1 65119U 25170A   26145.20142083  .00001490  00000+0  20467-3 0  9990","line2":"2 65119  49.9890 281.0548 0010168 320.6590  39.3609 14.83885901 43028","mean_motion":14.83885901,"eccentricity":0.0010168,"inclination_deg":49.989,"raan_deg":281.0548,"arg_perigee_deg":320.659,"mean_anomaly_deg":39.3609,"bstar":0.00020467,"rev_number":4302,"period_min":97.042501652558,"perigee_km":609.97226740811,"apogee_km":624.19775088591,"semimajor_km":6995.222009147,"source":"CELESTRAK","updated_at":"2026-05-25T13:38:05.136752Z"}}